User: anonymous   Login
Location: Unspecified
(0.0000°N, 0.0000°E)
Time: 01:07:08
(UTC+00:00)
Language:

Vanguard 3 - Orbit

View from above orbital plane
View from above orbital plane
View from above satellite
View from above satellite

Ground track
Ground track

The orbit data is extracted from the following two-line orbital elements,

1    20U 59007A   18113.36766024 +.00000216 +00000-0 +95767-4 0  9998
2    20 033.3415 102.2043 1667671 057.2147 317.8250 11.55570613139648
Epoch (UTC): 23 April 2018 08:49:25
Eccentricity: 0.1667671
inclination: 33.3415°
perigee height: 508 km
apogee height: 3264 km
right ascension of ascending node: 102.2043°
argument of perigee: 57.2147°
revolutions per day: 11.55570613
mean anomaly at epoch: 317.8250°
orbit number at epoch: 13964

The dashed part of the orbit path shows where the satellite is in the earth's shadow,  

DLR